Temperature
15 15 15 15 15 15 15 15 15 15 15 15 15 15 15 14 14 14 14 14 14 14 14 13 13 13 13 13 13 13 13 13 12 12 12 12 11 11 11 11 11 11 11
15 15 15 15 15 15 15 15 15 15 15 15 15 15 15 14 14 14 14 14 14 14 14 13 13 13 13 13 13 13 13 12 12 12 12 11 11 11 11 11 11 11 11
14 15 15 15 15 15 15 15 15 15 15 15 15 15 15 14 14 14 14 14 14 13 13 13 13 13 13 13 13 13 13 12 12 12 11 11 11 11 11 11 10 10 10
14 14 14 14 15 15 15 15 15 15 15 15 15 15 14 14 14 14 14 14 14 13 13 13 13 13 13 13 13 13 12 12 12 12 11 11 11 11 10 10 10 10 10
14 14 14 14 14 14 14 15 15 15 15 15 15 14 14 14 14 14 14 14 13 13 13 13 13 13 13 13 13 13 12 12 12 11 11 11 11 10 10 10 10 10 10
14 14 13 13 14 14 14 14 14 14 14 14 14 14 14 14 14 14 14 14 13 13 13 13 13 13 13 13 13 12 12 12 12 11 11 11 10 10 10 10 10 10 10
13 13 13 13 13 14 14 14 14 14 14 14 13 13 13 13 14 14 14 14 14 13 13 13 13 13 13 12 12 12 12 12 11 11 11 11 10 10 10 10 10 9 9
13 13 13 13 13 13 13 14 14 14 14 13 13 13 13 13 14 14 14 14 14 13 13 13 13 13 12 12 12 12 12 12 11 11 11 10 10 10 10 9 9 9 9
13 13 13 13 13 13 13 14 14 14 14 13 13 13 13 13 13 13 14 14 13 13 13 13 13 12 12 12 12 12 11 11 11 11 10 10 10 9 9 9 9 9 9
13 12 12 13 13 13 13 13 13 13 13 13 13 13 13 13 13 13 13 13 13 13 13 13 13 12 12 12 12 11 11 11 10 10 10 10 9 9 9 9 9 9 9
12 12 12 12 12 12 12 13 13 13 13 13 13 13 12 13 13 13 13 13 13 13 13 13 12 12 12 12 11 11 11 11 10 10 10 9 9 9 9 9 8 8 8
12 12 12 12 12 12 12 12 12 13 13 13 13 13 13 13 13 13 13 13 13 13 12 12 12 12 12 11 11 11 10 10 10 10 9 9 9 8 8 8 8 8 8
11 12 12 12 12 12 12 12 12 12 12 12 12 12 12 12 13 13 13 12 12 12 12 12 12 12 11 11 11 10 10 10 10 9 9 9 8 8 8 8 8 8 8
11 11 12 12 12 11 11 12 12 12 12 12 12 12 12 12 12 12 12 12 11 11 11 12 12 12 11 11 10 10 10 9 9 9 9 8 8 8 7 7 7 7 7
11 11 11 11 11 11 11 11 11 11 11 11 11 11 11 11 11 11 11 11 11 11 11 11 11 11 11 10 10 10 9 9 9 8 8 8 7 7 7 7 7 7 7
10 10 11 11 11 11 11 11 11 11 11 11 11 11 11 11 11 11 11 11 11 10 10 10 11 11 10 10 9 9 9 8 8 8 8 7 7 7 6 6 6 6 6
10 10 10 10 10 10 10 10 10 10 10 10 10 10 10 10 10 10 10 10 10 10 10 10 10 10 9 9 9 8 8 8 7 7 7 7 6 6 6 6 6 6 6
9 9 9 9 9 9 9 9 9 10 10 10 10 10 10 10 10 10 9 9 9 9 9 9 9 9 9 8 8 8 8 7 7 6 6 6 6 5 5 5 5 5 5
8 8 9 8 9 9 9 9 9 9 9 9 9 9 9 9 9 9 9 9 9 9 8 8 8 8 8 8 7 7 7 7 6 6 5 5 5 5 5 5 5 4 4
8 8 8 8 8 8 8 8 8 8 8 8 8 8 8 8 8 8 8 8 8 8 8 7 7 7 7 7 7 7 6 6 6 5 5 5 5 4 4 4 4 4 4
7 7 7 7 7 7 7 7 7 7 7 7 7 7 7 7 7 7 7 7 7 7 7 7 6 6 6 6 6 6 6 5 5 5 4 4 4 4 4 4 4 4 3
6 6 6 6 6 6 6 6 6 6 6 6 6 6 6 6 6 6 7 7 7 6 6 6 6 6 6 6 6 6 5 5 4 4 4 4 4 3 3 3 3 3 3
5 5 5 5 5 5 5 5 5 5 5 5 5 5 5 5 5 5 6 6 6 6 5 5 5 5 5 5 5 5 5 4 4 4 4 3 3 3 3 3 3 2 2
4 4 4 4 4 4 4 4 4 4 4 4 4 4 4 4 4 4 4 4 5 5 5 4 4 4 4 4 4 4 4 3 3 3 3 3 3 3 2 2 2 2 2
3 3 3 3 3 3 3 3 3 3 3 3 3 3 3 3 3 3 3 3 3 4 4 3 4 4 4 4 3 3 3 3 3 3 2 2 2 2 2 2 2 2 2
2 2 2 2 2 2 2 2 2 2 2 2 2 2 2 2 2 2 2 2 2 2 2 3 3 3 3 3 3 3 3 3 2 2 2 2 2 2 1 2 1 1 1
Wind_Speed
9 9 9 11 12 12 10 8 8 7 6 6 6 6 5 6 7 7 7 8 8 7 6 5 5 4 3 2 1 1 1 1 1 2 2 2 1 1 1 2 3 4 5
9 9 9 9 10 12 12 10 8 6 4 4 4 5 5 6 7 8 8 8 9 8 7 6 5 4 3 2 2 1 1 1 1 1 1 2 1 1 1 2 3 4 5
12 10 10 10 10 13 12 9 7 5 4 3 4 4 4 6 6 7 8 8 8 9 8 7 6 5 4 3 3 2 2 1 1 1 1 1 1 1 1 2 3 4 5
15 10 10 10 11 12 9 7 6 5 5 4 3 3 3 4 5 7 7 8 8 8 8 8 7 6 5 4 4 3 3 2 2 1 1 1 2 2 2 3 3 4 5
16 11 9 9 12 10 8 8 6 5 5 5 4 3 3 3 3 5 5 7 8 9 8 8 8 7 6 4 5 4 4 3 2 2 2 1 2 3 3 4 4 4 4
16 13 9 10 11 10 9 8 7 5 4 5 3 2 2 3 3 4 4 6 7 9 9 8 8 7 6 5 5 5 4 4 3 2 2 2 3 3 4 4 4 4 4
15 13 11 11 11 11 11 11 7 7 4 4 3 1 1 2 3 3 3 3 5 7 9 9 9 8 6 6 6 6 5 4 3 3 3 3 3 4 4 4 4 4 4
14 13 13 12 13 11 12 12 8 6 4 6 4 3 1 2 3 3 3 4 4 5 6 8 9 8 8 7 7 7 6 5 4 4 4 3 3 3 5 5 4 4 4
13 13 14 13 13 12 12 13 12 11 7 6 4 4 4 5 2 2 3 3 4 4 4 6 8 9 9 8 7 6 6 4 4 3 3 3 3 4 4 4 5 5 5
12 13 13 13 13 12 11 12 12 9 9 8 5 4 3 4 3 2 2 2 4 5 5 5 7 9 10 9 9 8 7 6 4 3 3 3 4 4 4 4 4 4 4
11 12 12 12 13 12 12 11 11 10 8 8 7 4 3 2 2 3 3 3 3 4 5 5 5 7 10 10 9 9 8 7 6 4 3 3 3 3 4 4 4 4 4
9 12 12 12 12 11 11 11 11 12 11 9 7 6 5 4 5 4 4 4 4 3 3 4 5 6 9 10 11 11 10 9 7 6 5 3 2 2 3 2 2 2 3
7 10 10 11 11 10 10 10 11 11 10 10 10 8 7 5 4 4 4 3 3 2 2 4 5 7 9 10 11 12 11 10 8 7 5 4 2 1 0 1 1 1 2
6 8 10 10 10 10 10 10 9 10 9 10 10 9 6 5 5 4 4 4 3 3 4 6 4 7 10 11 12 13 10 11 9 8 6 5 4 3 2 1 0 1 2
4 6 7 8 8 9 9 10 8 9 8 9 9 9 7 5 5 5 5 5 5 6 8 7 6 6 9 11 12 12 11 11 11 9 7 6 5 4 3 2 1 1 2
2 3 4 6 7 7 7 7 6 6 7 7 6 8 7 5 5 6 6 5 5 6 6 5 6 4 7 8 11 12 11 11 11 10 9 8 7 6 4 3 2 1 1
2 1 2 4 5 5 5 6 6 6 7 7 6 7 8 6 6 5 5 5 6 5 7 3 2 3 6 7 7 9 10 9 9 11 11 10 8 7 6 4 3 2 1
3 2 1 1 3 4 5 5 6 6 7 8 7 7 8 6 7 6 6 7 7 6 6 5 3 4 5 7 6 6 6 9 9 11 11 10 8 8 7 5 4 3 1
6 5 3 1 0 2 3 4 5 6 7 8 8 8 7 7 8 6 7 7 6 5 4 4 4 3 3 4 4 4 4 4 6 9 11 11 9 8 8 7 5 4 2
7 6 5 3 2 1 1 2 3 4 5 6 6 7 7 8 9 8 7 8 6 6 5 5 4 3 3 3 4 5 5 5 5 6 9 9 9 8 9 8 6 5 4
9 7 7 6 5 3 2 1 2 3 4 5 5 5 6 8 9 8 7 7 7 7 6 6 5 4 4 4 6 5 6 4 4 4 4 4 5 4 6 7 7 6 4
9 9 8 7 7 5 7 6 3 3 4 4 5 5 5 7 8 10 11 10 10 9 9 7 6 8 8 7 6 6 6 5 5 4 5 4 4 4 4 6 7 7 6
9 9 8 7 7 8 11 10 7 3 3 4 5 5 4 5 6 6 8 9 10 13 12 9 9 9 8 8 9 8 7 6 5 5 5 4 4 4 4 8 8 8 7
8 7 8 7 7 8 12 12 11 5 3 3 4 5 6 6 6 6 5 6 6 7 8 8 8 8 7 8 10 9 7 5 2 2 4 4 4 4 3 5 9 9 8
7 6 6 7 7 8 12 13 11 4 4 4 4 4 5 6 8 8 6 6 6 6 7 8 8 8 10 12 11 7 7 5 4 4 4 4 4 3 2 2 5 8 8
6 6 7 6 7 7 11 13 11 4 5 5 5 5 7 8 9 9 6 6 7 6 4 4 5 6 7 10 14 10 9 7 4 4 6 6 4 4 2 1 2 3 4
Wind_Direction
174 172 173 172 171 170 169 166 165 166 167 167 170 173 183 195 203 210 221 222 218 212 210 209 208 210 216 207 198 192 214 223 242 231 225 227 239 245 280 331 338 332 329
176 177 176 177 177 177 177 175 173 170 172 172 179 185 192 200 210 214 221 224 220 218 217 217 216 213 206 210 205 195 183 200 211 224 221 217 218 244 263 312 321 326 320
181 180 181 183 182 180 176 171 168 165 169 179 192 194 196 205 210 216 220 221 220 221 219 217 217 215 215 224 214 194 181 160 172 175 166 197 208 251 296 315 328 323 323
184 182 185 187 181 178 176 174 173 173 184 186 194 203 200 205 213 216 215 215 214 215 217 216 214 213 215 223 211 205 195 175 162 160 162 180 219 246 281 293 310 318 319
186 186 190 187 180 180 181 183 180 176 184 189 196 205 209 211 209 208 208 210 209 208 208 210 209 208 210 218 210 209 198 186 185 188 199 225 251 257 267 277 289 303 313
189 187 191 187 183 185 186 185 178 177 179 176 176 189 218 224 213 209 207 206 204 204 202 198 196 200 206 208 200 202 201 197 194 201 218 241 261 274 278 285 290 292 302
194 191 193 188 189 193 191 185 176 176 177 152 132 144 307 248 226 223 205 197 197 198 193 193 193 193 198 200 196 196 200 206 214 223 239 251 262 279 284 286 294 298 302
197 197 194 193 193 194 191 186 175 172 176 169 153 144 222 287 257 226 207 206 204 189 191 194 191 191 192 191 195 198 203 208 219 236 242 246 258 279 288 285 284 295 305
200 199 199 194 194 195 196 192 186 182 182 187 180 166 174 215 233 246 219 211 200 197 199 190 192 193 193 191 192 196 196 198 221 238 249 254 267 284 291 288 288 291 300
201 200 200 198 196 197 198 197 193 189 180 187 198 208 190 163 171 217 254 223 207 208 207 199 192 193 192 191 193 192 191 195 209 225 245 266 272 284 292 292 299 306 310
202 199 198 199 198 198 199 197 193 192 191 191 188 181 183 183 178 185 221 224 221 220 211 203 195 194 194 192 191 192 192 193 200 213 236 257 267 283 299 299 298 309 324
203 200 199 200 200 199 199 199 198 198 200 199 196 189 182 184 195 193 212 219 222 219 210 204 203 198 199 196 195 193 192 192 198 208 224 232 240 298 313 307 305 325 339
206 199 198 200 199 198 196 196 199 202 202 203 204 206 205 207 185 181 193 214 225 224 213 220 213 202 201 197 196 195 193 191 195 203 216 216 215 243 320 335 323 339 350
205 195 195 196 197 195 193 195 201 204 202 207 210 207 209 209 197 195 189 188 225 237 227 229 210 207 202 196 196 192 192 194 195 197 199 196 174 162 151 128 21 358 0
194 189 189 190 193 192 192 193 203 202 200 206 209 209 212 211 207 206 202 197 204 233 236 219 210 206 200 196 193 190 190 196 196 191 189 177 169 166 167 172 156 44 22
139 156 173 184 184 184 188 189 194 198 199 206 207 210 214 213 213 209 207 211 214 223 238 211 208 190 187 193 195 192 192 195 197 190 187 183 183 181 180 177 164 107 70
85 134 161 183 184 184 187 194 202 200 206 213 211 215 221 215 216 213 209 212 218 217 238 230 196 182 182 189 185 190 191 192 198 196 193 192 189 185 179 174 170 155 119
49 59 100 164 184 186 194 201 211 212 213 218 219 219 225 220 221 219 215 219 221 216 221 227 204 196 200 193 185 189 191 196 199 202 198 194 193 191 186 184 188 180 167
45 43 47 51 117 195 200 209 215 220 222 224 221 221 225 219 227 228 224 225 223 219 217 218 212 199 195 176 175 190 192 195 200 205 203 198 196 197 194 194 200 196 188
39 35 32 30 26 18 210 217 220 228 234 235 230 227 226 224 230 228 227 226 220 216 212 214 213 198 194 176 173 190 202 203 201 199 203 200 199 203 201 198 200 201 194
32 29 29 24 19 13 349 298 238 236 237 241 241 237 237 239 240 234 231 225 217 220 215 218 217 205 200 186 200 192 204 193 207 194 190 197 190 194 201 201 199 198 193
28 28 28 23 20 12 356 352 323 257 248 246 253 256 255 247 249 251 248 237 225 220 219 219 222 220 215 207 195 190 185 182 214 195 183 199 179 195 201 201 201 200 202
24 23 19 18 13 3 2 359 345 329 278 257 253 256 267 262 259 249 252 247 238 234 226 220 225 226 216 203 190 193 195 194 201 174 170 193 182 203 204 207 206 206 207
17 15 10 6 3 359 359 356 353 348 310 289 273 258 254 255 251 249 246 246 247 244 237 230 228 227 216 199 197 196 190 173 117 149 164 182 181 198 189 206 209 208 207
10 6 1 359 357 350 355 355 354 341 325 313 299 280 266 254 260 261 245 242 254 259 254 243 240 233 219 204 187 167 165 172 192 194 183 171 169 171 173 200 208 207 202
359 357 356 353 350 343 348 350 349 339 328 323 319 308 296 288 278 268 250 240 248 254 243 243 240 234 220 208 196 189 183 184 173 189 184 171 162 156 176 197 188 187 189
Height
1511 1514 1517 1521 1524 1527 1530 1533 1536 1539 1541 1543 1545 1547 1549 1550 1551 1552 1553 1553 1554 1554 1555 1555 1555 1555 1555 1554 1554 1553 1553 1552 1552 1551 1551 1550 1550 1549 1548 1548 1547 1546 1545
1507 1511 1514 1517 1521 1524 1528 1531 1534 1537 1539 1541 1543 1545 1547 1548 1549 1550 1551 1552 1553 1553 1553 1553 1554 1553 1553 1553 1552 1552 1551 1551 1550 1550 1549 1549 1548 1547 1547 1546 1545 1544 1543
1503 1507 1510 1514 1517 1521 1525 1528 1531 1534 1537 1539 1541 1543 1544 1546 1547 1548 1549 1550 1551 1551 1552 1552 1552 1552 1552 1551 1551 1550 1550 1549 1548 1548 1547 1547 1546 1546 1545 1544 1543 1542 1542
1499 1503 1506 1510 1513 1517 1521 1524 1528 1531 1533 1536 1538 1540 1542 1543 1545 1546 1547 1548 1548 1549 1549 1550 1550 1550 1550 1549 1549 1548 1548 1547 1547 1546 1545 1545 1544 1544 1543 1542 1541 1540 1540
1495 1498 1502 1506 1509 1513 1517 1520 1524 1527 1530 1533 1535 1537 1539 1540 1542 1543 1544 1545 1546 1546 1547 1547 1547 1547 1547 1547 1546 1546 1545 1545 1544 1544 1543 1543 1542 1541 1540 1539 1538 1538 1537
1490 1493 1497 1501 1505 1508 1512 1516 1520 1523 1527 1530 1532 1534 1536 1537 1539 1540 1541 1542 1542 1543 1544 1544 1544 1544 1544 1544 1544 1544 1543 1542 1542 1541 1541 1540 1539 1538 1538 1537 1536 1535 1534
1484 1488 1492 1496 1500 1503 1507 1511 1515 1519 1522 1526 1529 1531 1532 1533 1534 1536 1537 1538 1538 1539 1540 1540 1541 1541 1541 1541 1541 1541 1540 1540 1539 1538 1538 1537 1536 1536 1535 1534 1533 1532 1531
1479 1482 1486 1490 1494 1498 1502 1506 1510 1514 1517 1521 1524 1526 1528 1530 1529 1531 1532 1533 1534 1535 1536 1537 1537 1538 1538 1538 1538 1537 1537 1536 1536 1535 1535 1534 1533 1532 1532 1531 1530 1529 1528
1473 1477 1481 1485 1489 1492 1496 1500 1504 1508 1511 1515 1519 1521 1523 1523 1525 1526 1527 1529 1530 1531 1532 1533 1533 1534 1534 1534 1534 1534 1533 1533 1532 1532 1531 1531 1530 1529 1528 1527 1527 1526 1525
1467 1471 1475 1479 1482 1486 1490 1494 1498 1502 1506 1509 1513 1516 1518 1519 1520 1521 1522 1524 1525 1526 1527 1528 1529 1529 1530 1530 1530 1530 1529 1529 1528 1528 1527 1527 1526 1525 1525 1524 1523 1522 1521
1461 1465 1469 1473 1476 1480 1484 1489 1492 1496 1500 1503 1506 1509 1512 1514 1515 1516 1516 1518 1519 1520 1521 1523 1524 1524 1524 1525 1525 1525 1525 1524 1524 1524 1523 1523 1522 1521 1520 1520 1519 1518 1517
1455 1459 1463 1466 1470 1474 1478 1482 1486 1490 1494 1497 1500 1503 1505 1508 1509 1510 1511 1511 1512 1514 1516 1517 1518 1519 1519 1519 1519 1520 1520 1520 1520 1519 1519 1518 1518 1517 1516 1515 1514 1513 1513
1449 1452 1457 1460 1463 1467 1472 1477 1480 1484 1488 1491 1494 1496 1499 1502 1504 1505 1506 1506 1507 1508 1509 1510 1511 1512 1513 1513 1514 1514 1515 1515 1515 1514 1514 1513 1513 1512 1512 1511 1510 1509 1508
1444 1447 1451 1454 1458 1462 1466 1470 1474 1477 1481 1485 1487 1490 1493 1495 1498 1499 1501 1501 1501 1502 1502 1503 1504 1505 1507 1507 1507 1508 1509 1509 1509 1509 1508 1508 1508 1507 1507 1506 1506 1505 1504
1439 1442 1445 1448 1452 1455 1459 1463 1467 1470 1474 1478 1481 1483 1486 1488 1491 1493 1494 1496 1497 1496 1495 1496 1497 1498 1499 1500 1501 1501 1502 1503 1503 1503 1503 1503 1503 1503 1502 1502 1501 1501 1500
1435 1438 1440 1444 1447 1450 1454 1457 1461 1464 1467 1471 1474 1477 1479 1481 1484 1486 1487 1488 1489 1490 1488 1489 1490 1491 1493 1493 1494 1495 1495 1496 1497 1497 1497 1497 1497 1497 1497 1497 1497 1497 1496
1432 1434 1436 1439 1442 1446 1449 1452 1455 1458 1461 1464 1466 1469 1471 1474 1476 1478 1479 1480 1481 1482 1481 1482 1483 1484 1484 1486 1487 1488 1489 1490 1490 1491 1491 1491 1492 1492 1492 1492 1492 1492 1492
1430 1432 1434 1436 1439 1441 1444 1447 1449 1452 1455 1457 1460 1462 1464 1467 1468 1470 1471 1472 1473 1474 1475 1474 1475 1476 1477 1478 1480 1481 1482 1483 1484 1485 1485 1485 1486 1486 1487 1487 1487 1487 1487
1428 1430 1432 1434 1436 1438 1440 1442 1445 1447 1449 1452 1454 1456 1458 1459 1461 1462 1463 1464 1466 1467 1467 1467 1467 1468 1469 1470 1472 1473 1475 1476 1477 1478 1478 1479 1480 1481 1481 1482 1483 1483 1483
1428 1429 1430 1431 1433 1434 1436 1438 1439 1441 1443 1445 1447 1449 1450 1452 1453 1454 1455 1456 1457 1458 1459 1460 1460 1460 1461 1462 1464 1465 1467 1468 1469 1471 1472 1472 1473 1474 1476 1477 1477 1478 1478
1428 1429 1429 1429 1430 1431 1432 1433 1434 1436 1437 1439 1440 1441 1443 1444 1445 1447 1447 1448 1449 1449 1450 1451 1451 1452 1453 1454 1455 1457 1459 1461 1462 1463 1465 1466 1467 1468 1470 1471 1472 1473 1473
1427 1427 1428 1428 1428 1428 1428 1429 1429 1431 1431 1432 1433 1434 1436 1437 1438 1439 1439 1440 1441 1441 1442 1443 1443 1443 1444 1446 1448 1450 1452 1453 1454 1456 1458 1459 1461 1462 1464 1465 1467 1467 1468
1427 1426 1426 1426 1426 1426 1425 1425 1424 1425 1425 1426 1426 1427 1428 1429 1430 1430 1430 1431 1432 1433 1434 1435 1435 1436 1437 1439 1441 1442 1443 1444 1446 1449 1451 1452 1454 1456 1458 1459 1461 1462 1463
1426 1425 1425 1424 1423 1423 1422 1421 1420 1420 1420 1420 1420 1420 1421 1422 1422 1422 1422 1422 1422 1424 1425 1426 1427 1428 1430 1432 1433 1435 1436 1438 1440 1442 1444 1445 1447 1450 1452 1453 1455 1456 1458
1425 1424 1423 1422 1421 1419 1419 1418 1416 1415 1414 1414 1414 1414 1414 1414 1414 1414 1414 1414 1414 1415 1416 1417 1418 1419 1421 1423 1425 1427 1428 1430 1432 1434 1437 1439 1441 1444 1446 1448 1449 1451 1453
1424 1423 1421 1420 1418 1417 1415 1414 1413 1411 1410 1409 1408 1408 1408 1408 1407 1407 1407 1406 1406 1407 1408 1408 1410 1411 1413 1415 1417 1418 1421 1423 1424 1427 1429 1432 1434 1437 1440 1441 1444 1445 1448